Location: Eckley Miners' Village
(40.9930°N, 75.8630°W)
Time: 10:44:32
(UTC-04:00)

Vanguard 1 Rocket - Pass Details

Date: 11 March 2026
Orbit: 654 x 4213 km, 34.3° (Epoch: 11 April)

Event Time Altitude Azimuth Distance (km) Brightness Sun altitude
Rises 08:55:18 0° 233° (SW) 3,236 9.9 16.4°
Reaches altitude 10° 08:58:10 10° 220° (SW) 2,134 9.2 16.9°
Maximum altitude 09:01:57 25° 163° (SSE) 1,294 8.9 17.6°
Drops below altitude 10° 09:05:45 10° 106° (ESE) 2,150 11.8 18.3°
Sets 09:08:39 0° 94° (E) 3,267 11.6 18.8°
